Tracking 29892 objects as of 21-Nov-2024
HD Live streaming from Space Station
objects crossing your sky now

LEGION 1

Track LEGION 1 now!
10-day predictions


NORAD ID: 59625
Int'l Code: 2024-081A
Perigee: 515.6 km
Apogee: 526.7 km
Inclination: 97.6 °
Period: 94.9 minutes
Semi major axis: 6892 km
RCS: Unknown
Launch date: May 2, 2024
Source: United States (US)
Launch site: AIR FORCE WESTERN TEST RANGE (AFWTR)
Your satellite tracking list
Your tracking list is empty




NASA's NSSDC Master Catalog

Two Line Element Set (TLE):
1 59625U 24081A   24325.88396262  .00010246  00000-0  51683-3 0  9991
2 59625  97.5602  36.7308 0008015 208.0986 151.9816 15.17300171 30631
Source of the keplerian elements: AFSPC